Wind_Speed
7 7 8 9 9 10 11 11 12 12 13 13 13 13 13 13 14 14 14 15 15 16 15 15 15 15 16 16 17 17 17 17 17 17 17 18 18 17 17 17 16 16 17
9 9 9 10 11 11 12 13 13 14 14 14 13 13 13 14 14 14 15 15 16 16 16 16 16 16 16 17 17 18 18 18 18 17 17 17 17 17 16 16 16 16 17
12 12 12 12 13 13 13 13 14 14 15 14 13 13 13 14 14 15 16 16 17 17 17 17 17 17 17 18 18 19 19 18 18 17 17 17 17 17 16 16 16 17 17
14 15 14 14 15 15 15 14 15 15 16 16 16 16 15 15 16 16 17 18 18 18 17 17 17 18 18 18 19 19 18 18 18 18 17 17 17 16 16 16 16 17 18
15 16 16 17 17 17 16 16 17 17 17 17 17 17 17 17 18 18 18 18 19 19 18 18 18 18 18 18 18 17 17 18 18 18 18 17 16 16 16 17 17 17 18
17 18 19 18 18 18 18 18 18 19 19 19 18 19 18 19 20 20 20 19 20 20 20 19 19 19 19 18 17 16 17 17 17 17 17 16 16 16 16 17 18 18 18
19 20 21 21 21 21 21 21 20 20 20 20 21 21 20 20 20 21 21 21 21 21 21 21 21 20 20 19 18 17 17 16 16 16 16 17 17 17 17 18 18 18 19
22 23 23 23 23 23 23 23 23 23 22 22 22 22 22 22 22 22 23 23 22 22 22 23 23 22 21 20 19 18 17 17 17 16 17 17 18 19 19 19 19 19 20
25 24 25 25 26 25 25 26 26 25 24 24 24 23 23 24 24 24 24 24 24 23 23 24 24 23 23 22 20 19 18 18 19 18 18 19 20 20 20 20 21 21 21
27 27 27 28 28 27 28 28 27 26 26 26 26 26 26 26 26 26 26 25 25 24 25 25 25 25 24 23 21 20 20 20 20 20 20 20 21 21 21 21 22 22 22
29 29 29 29 29 29 30 29 28 28 28 27 27 27 27 27 27 27 28 27 26 26 25 26 26 24 24 23 23 21 21 22 22 22 23 22 22 22 23 23 23 24 23
30 30 31 31 31 31 32 31 30 29 29 29 30 29 29 29 29 28 28 29 28 27 27 27 26 25 25 25 24 24 24 23 23 24 24 24 24 24 25 25 25 25 25
31 32 32 33 33 33 33 32 32 32 32 31 31 31 30 31 30 29 30 30 30 29 28 27 27 26 26 26 26 26 26 26 25 25 26 26 26 26 26 26 26 26 27
33 34 34 34 35 34 33 32 32 32 33 32 32 32 32 32 31 31 31 31 31 30 29 29 28 27 28 27 27 28 28 28 28 27 27 28 28 28 28 28 28 28 28
35 36 36 36 36 35 34 34 34 33 33 33 33 34 33 32 31 31 31 31 31 30 31 30 29 29 30 30 30 30 30 29 29 29 29 30 30 30 30 29 29 29 29
36 36 36 36 35 34 34 33 34 33 33 34 34 33 32 32 32 32 32 32 31 31 31 31 31 30 30 31 31 31 31 30 30 30 30 31 30 30 30 30 30 30 30
37 36 36 36 35 35 35 35 35 35 35 35 35 34 34 33 33 33 33 33 32 32 32 32 32 32 32 32 31 31 31 31 31 30 30 30 30 31 31 32 32 31 31
38 38 37 36 36 36 35 35 36 35 35 36 35 35 35 34 34 34 34 33 32 32 32 32 32 32 32 32 31 32 32 32 32 32 32 32 32 33 33 33 33 32 33
39 38 37 36 36 36 36 36 36 35 36 36 35 35 35 35 35 34 34 33 33 33 33 32 33 33 33 32 32 33 33 32 32 33 33 34 34 34 33 33 33 33 33
39 38 37 36 36 36 37 36 35 35 35 35 35 35 35 35 35 34 34 33 33 33 33 33 33 33 33 33 33 33 33 33 33 34 34 34 34 33 33 33 34 34 33
38 38 37 37 37 36 36 36 36 36 36 36 36 35 35 35 34 34 34 33 34 33 33 33 34 33 33 33 33 34 34 34 35 34 34 35 35 34 34 34 34 34 33
37 37 37 37 37 36 36 36 36 36 36 36 36 36 35 35 34 34 34 34 34 34 33 33 33 32 32 33 34 35 35 35 35 35 34 34 35 35 34 33 33 32 33
36 36 36 36 36 36 36 36 36 36 36 36 36 36 35 34 34 34 34 33 33 33 33 33 32 32 33 34 35 35 35 34 33 33 33 34 35 34 34 33 32 32 32
35 35 35 35 35 35 35 35 36 36 36 35 35 34 34 34 33 33 32 32 33 33 32 32 32 32 32 33 34 34 34 33 33 33 33 33 34 34 33 32 32 32 33
34 34 34 34 34 34 35 34 34 34 34 34 34 33 33 33 33 33 32 32 32 32 31 31 32 32 32 33 33 34 33 32 33 33 33 33 33 32 32 32 32 32 32
31 32 32 32 33 32 31 32 33 32 32 32 32 32 32 32 32 33 33 32 31 31 31 32 33 33 33 34 34 34 33 32 33 33 33 33 33 33 33 33 33 33 33
Wind_Direction
319 330 335 333 335 337 338 337 338 336 335 333 330 326 322 319 319 318 315 315 314 311 309 308 305 302 303 305 304 302 301 300 298 298 296 294 292 292 291 288 285 285 284
303 314 317 321 323 324 328 331 331 331 331 331 327 326 324 323 323 322 319 317 314 313 309 307 305 302 301 302 302 302 300 299 298 298 299 298 295 293 292 289 286 287 288
299 303 309 313 318 319 320 322 323 324 324 326 324 323 324 324 324 323 321 321 317 315 313 311 308 305 302 301 301 300 299 298 298 297 297 298 297 295 293 291 287 288 289
295 299 302 304 309 313 313 315 318 318 318 317 319 317 318 320 320 319 319 321 321 318 317 313 311 310 306 303 302 300 297 296 297 297 296 296 296 295 293 294 291 290 288
291 297 299 300 303 307 308 308 311 313 313 314 316 313 313 314 315 316 317 317 321 318 317 317 315 313 309 308 306 304 300 298 298 298 297 297 298 297 297 297 296 294 292
288 292 296 298 300 303 305 305 306 308 310 312 314 310 307 308 308 309 313 315 316 316 314 314 314 310 308 310 308 304 301 298 297 297 297 298 299 297 298 297 297 295 295
284 288 292 295 296 298 299 301 303 304 307 309 309 309 307 306 306 307 309 311 311 312 312 311 309 310 310 308 305 300 298 298 298 298 297 298 299 299 298 298 297 296 297
282 285 288 290 293 294 296 296 298 299 301 303 303 305 305 306 305 304 305 306 307 310 310 307 306 305 308 305 303 296 295 297 297 296 297 298 298 298 296 297 297 297 297
280 282 285 287 289 290 292 292 293 294 295 297 299 300 302 302 302 302 302 302 303 304 306 306 308 307 306 303 299 295 293 294 293 293 294 295 296 297 297 296 297 298 297
278 280 282 284 286 287 288 288 288 289 291 292 294 295 297 298 299 299 300 301 301 301 303 305 304 303 301 301 298 295 292 291 292 293 292 292 293 294 294 295 295 297 298
276 278 281 282 283 284 285 286 286 287 289 290 290 291 293 294 295 296 297 300 301 301 301 302 302 299 296 297 297 295 294 292 292 292 292 291 292 293 293 293 295 296 296
276 278 280 280 280 281 284 284 284 285 286 287 287 288 289 291 292 292 294 296 297 298 299 299 299 297 294 294 293 292 293 293 293 293 292 292 291 290 292 293 294 295 295
276 278 279 280 281 280 281 283 283 284 285 285 286 286 287 288 289 291 292 293 295 296 296 295 295 294 292 292 291 290 292 290 290 292 292 292 291 291 291 292 292 294 295
277 278 279 279 281 281 281 282 283 284 284 284 284 285 285 285 287 289 291 292 293 293 293 293 293 292 292 291 290 291 290 290 289 288 291 292 291 290 290 291 292 292 294
279 280 281 281 281 280 280 281 283 283 283 282 282 284 284 285 286 288 289 290 290 291 291 291 291 292 291 290 289 290 289 289 289 288 288 290 290 289 289 289 290 291 292
278 280 280 280 280 280 281 281 282 282 282 283 283 283 284 284 286 286 287 289 289 289 290 289 289 289 289 290 289 289 288 287 286 286 286 288 288 288 288 288 288 289 290
277 278 280 279 279 278 279 279 280 280 280 280 282 283 284 284 286 287 286 287 288 288 289 289 289 289 289 289 289 289 289 287 286 286 287 286 286 287 288 288 287 288 290
276 278 279 280 278 277 277 277 277 277 278 279 279 280 282 282 284 286 287 287 288 289 288 288 289 289 289 289 288 288 289 288 287 287 287 286 286 287 288 288 287 287 288
277 277 277 277 277 276 276 275 276 277 278 279 279 279 280 281 282 285 286 287 287 287 287 287 288 288 287 287 288 288 288 288 287 287 287 286 286 287 287 287 287 288 288
276 276 276 276 275 275 275 274 275 277 278 279 280 281 281 281 282 283 285 286 286 286 286 286 286 286 285 284 286 286 287 287 287 286 286 287 286 286 285 284 286 288 288
275 274 274 273 274 274 274 273 274 276 277 279 281 282 282 283 282 281 283 285 286 286 286 286 285 284 284 284 285 286 286 287 286 286 287 286 285 284 284 283 283 284 283
273 272 271 272 273 273 273 273 274 276 278 278 279 282 283 283 283 284 284 284 284 285 285 285 284 282 283 285 285 285 285 286 286 285 285 286 285 283 283 284 284 284 284
272 272 272 272 272 273 273 273 274 275 276 276 278 281 282 282 283 284 284 283 283 284 284 283 282 283 284 285 286 286 285 285 285 284 284 285 284 283 284 284 286 286 286
271 272 272 272 272 273 274 275 275 276 277 277 279 280 282 282 282 282 283 281 283 284 284 284 285 286 287 286 286 286 286 286 286 286 286 286 286 285 286 287 287 286 286
271 271 272 271 271 272 273 274 276 277 278 278 279 279 280 282 282 281 281 281 283 285 286 286 287 287 286 286 286 287 287 286 285 285 284 284 284 285 286 287 287 286 286
271 271 271 271 271 273 273 274 276 277 279 279 279 278 278 280 281 282 281 281 283 285 286 285 285 287 288 288 287 286 286 286 286 285 284 283 283 284 285 286 286 285 286
Height
5900 5899 5897 5896 5895 5894 5893 5891 5890 5888 5886 5884 5882 5881 5878 5877 5875 5873 5871 5869 5867 5865 5863 5861 5859 5857 5856 5854 5853 5851 5849 5848 5846 5844 5843 5841 5839 5838 5837 5836 5835 5834 5834
5898 5897 5896 5895 5894 5892 5891 5889 5888 5886 5884 5882 5880 5878 5876 5874 5872 5870 5868 5866 5864 5862 5859 5857 5855 5854 5852 5850 5849 5847 5845 5843 5842 5840 5838 5837 5835 5834 5833 5832 5831 5830 5830
5896 5895 5893 5893 5892 5890 5889 5887 5885 5884 5882 5880 5878 5876 5873 5871 5870 5867 5865 5863 5861 5858 5856 5853 5851 5850 5848 5846 5844 5843 5841 5839 5838 5836 5835 5833 5831 5830 5829 5828 5827 5826 5825
5893 5891 5890 5889 5888 5887 5886 5884 5883 5881 5879 5877 5875 5873 5871 5869 5867 5865 5862 5860 5858 5855 5852 5850 5848 5846 5844 5842 5840 5838 5836 5835 5833 5832 5831 5829 5828 5826 5825 5824 5823 5822 5821
5889 5888 5887 5886 5885 5884 5883 5881 5880 5878 5876 5874 5871 5869 5867 5866 5864 5861 5859 5857 5854 5852 5849 5847 5844 5842 5840 5838 5836 5833 5832 5830 5829 5828 5826 5825 5824 5822 5821 5820 5819 5818 5816
5885 5884 5884 5882 5881 5880 5879 5877 5876 5874 5872 5870 5868 5866 5864 5862 5860 5858 5856 5853 5850 5848 5846 5843 5841 5838 5836 5833 5831 5829 5828 5827 5825 5824 5823 5821 5820 5818 5817 5816 5814 5813 5811
5880 5880 5879 5878 5877 5875 5874 5872 5871 5870 5868 5866 5864 5862 5860 5857 5855 5853 5851 5849 5846 5844 5842 5839 5837 5834 5831 5829 5827 5825 5824 5822 5821 5820 5819 5817 5816 5814 5813 5811 5809 5808 5807
5875 5875 5874 5873 5872 5870 5868 5867 5866 5864 5863 5861 5859 5857 5855 5853 5851 5848 5846 5844 5842 5840 5837 5835 5832 5829 5827 5824 5822 5821 5819 5818 5816 5815 5814 5813 5811 5810 5808 5806 5804 5803 5802
5868 5868 5867 5866 5865 5864 5862 5861 5859 5858 5857 5855 5854 5851 5850 5847 5845 5843 5840 5838 5836 5834 5832 5830 5827 5825 5822 5820 5818 5816 5814 5813 5811 5810 5809 5807 5806 5804 5803 5801 5800 5798 5796
5861 5860 5860 5859 5858 5857 5855 5854 5852 5851 5850 5849 5847 5845 5844 5842 5839 5837 5834 5832 5830 5828 5826 5824 5821 5819 5817 5814 5812 5811 5809 5808 5806 5805 5803 5802 5800 5798 5797 5796 5794 5792 5790
5853 5852 5852 5851 5850 5849 5848 5846 5845 5844 5843 5842 5840 5839 5837 5835 5833 5830 5828 5826 5823 5821 5819 5817 5815 5812 5811 5809 5807 5806 5804 5802 5801 5799 5797 5796 5794 5792 5791 5789 5787 5786 5784
5844 5844 5843 5843 5841 5840 5839 5838 5837 5836 5835 5834 5832 5831 5829 5827 5825 5823 5821 5819 5817 5815 5812 5810 5808 5806 5804 5803 5801 5799 5797 5796 5794 5792 5791 5789 5788 5786 5784 5782 5781 5779 5777
5835 5835 5834 5833 5832 5830 5829 5829 5828 5827 5826 5825 5823 5822 5821 5819 5817 5815 5813 5811 5809 5807 5805 5803 5801 5799 5797 5795 5794 5792 5790 5788 5787 5785 5784 5782 5780 5778 5777 5775 5773 5771 5769
5826 5825 5825 5823 5822 5821 5820 5819 5818 5818 5816 5815 5814 5813 5811 5810 5808 5806 5804 5802 5800 5798 5797 5795 5793 5791 5789 5788 5786 5784 5783 5781 5779 5777 5776 5774 5772 5771 5769 5767 5765 5763 5761
5816 5815 5814 5813 5812 5811 5810 5809 5808 5807 5806 5805 5804 5802 5801 5800 5799 5797 5795 5794 5792 5790 5788 5787 5785 5783 5781 5779 5777 5775 5774 5772 5770 5769 5767 5765 5764 5762 5760 5758 5757 5755 5753
5806 5805 5804 5803 5802 5800 5799 5799 5798 5797 5796 5795 5793 5792 5791 5790 5788 5787 5786 5785 5783 5781 5780 5778 5776 5774 5772 5770 5768 5766 5765 5763 5761 5760 5758 5756 5755 5753 5751 5750 5748 5746 5745
5795 5795 5794 5793 5792 5791 5790 5789 5788 5787 5785 5784 5783 5782 5781 5779 5778 5777 5776 5775 5773 5772 5770 5768 5766 5764 5762 5761 5759 5757 5755 5754 5752 5750 5749 5747 5745 5744 5742 5740 5738 5737 5735
5784 5783 5783 5782 5781 5780 5779 5778 5777 5776 5775 5774 5772 5771 5770 5769 5768 5767 5765 5764 5763 5761 5760 5758 5756 5754 5753 5751 5749 5748 5746 5744 5742 5741 5739 5737 5736 5734 5732 5730 5728 5727 5725
5772 5771 5771 5770 5769 5768 5767 5767 5766 5765 5764 5763 5762 5761 5760 5758 5757 5756 5755 5754 5752 5751 5749 5748 5746 5744 5742 5741 5739 5738 5736 5734 5733 5731 5729 5727 5726 5724 5722 5720 5718 5717 5715
5759 5759 5758 5758 5757 5756 5756 5755 5754 5754 5753 5752 5751 5750 5749 5747 5747 5746 5745 5743 5742 5740 5739 5737 5735 5733 5732 5731 5729 5727 5726 5724 5722 5721 5719 5717 5715 5714 5712 5710 5709 5707 5705
5747 5747 5746 5745 5745 5745 5744 5744 5743 5743 5742 5741 5740 5739 5738 5737 5736 5735 5734 5733 5731 5729 5728 5726 5725 5723 5721 5720 5718 5717 5715 5714 5712 5710 5708 5706 5705 5703 5702 5700 5699 5697 5695
5735 5735 5734 5734 5734 5733 5733 5733 5732 5732 5731 5731 5730 5729 5727 5726 5725 5724 5723 5722 5720 5719 5717 5715 5714 5712 5711 5709 5708 5706 5705 5703 5701 5700 5698 5696 5694 5692 5691 5690 5688 5687 5685
5724 5723 5723 5723 5722 5722 5722 5721 5721 5720 5720 5720 5719 5718 5717 5716 5714 5713 5712 5711 5709 5708 5706 5705 5703 5702 5700 5699 5697 5695 5694 5693 5691 5689 5687 5686 5684 5682 5681 5679 5678 5676 5674
5712 5712 5712 5712 5711 5711 5711 5711 5710 5710 5709 5709 5708 5707 5706 5705 5704 5703 5701 5700 5698 5697 5696 5694 5693 5691 5690 5688 5686 5685 5683 5682 5680 5678 5677 5675 5674 5672 5670 5669 5667 5665 5664
5701 5701 5701 5701 5701 5701 5700 5700 5700 5699 5699 5698 5698 5697 5695 5694 5693 5692 5691 5689 5688 5687 5685 5684 5683 5681 5679 5677 5676 5674 5673 5671 5669 5668 5666 5665 5664 5662 5660 5658 5657 5655 5653
5690 5690 5690 5691 5691 5690 5690 5690 5690 5689 5689 5688 5687 5686 5685 5684 5683 5681 5680 5679 5679 5677 5676 5674 5673 5671 5669 5667 5665 5663 5662 5660 5659 5657 5656 5654 5653 5652 5650 5648 5646 5644 5643